Location: Bruderhein
(53.8035°N, 112.9265°W)
Time: 13:49:09
(UTC+00:00)

deb Delta 139 - Pass Details

Date: 03 December 2023
Orbit: 731 x 794 km, 98.6° (Epoch: 01 March)

Event Time Altitude Azimuth Distance (km) Brightness Sun altitude
Rises 01:34:28 0° 171° (S) 3,267 ? -19.5°
Reaches altitude 10° 01:36:49 10° 174° (S) 2,335 ? -19.9°
Maximum altitude 01:41:56 67° 257° (WSW) 843 ? -20.6°
Drops below altitude 10° 01:47:01 10° 340° (NNW) 2,312 ? -21.4°
Sets 01:49:20 0° 343° (NNW) 3,232 ? -21.7°
